User: anonymous   Login
Location: Unspecified
(0.0000°N, 0.0000°E)
Time: 05:40:47
(UTC+00:00)
Language:

NNS O-25 - Orbit

View from above orbital plane
View from above orbital plane
View from above satellite
View from above satellite

Ground track
Ground track

The orbit is defined by the following mean orbital elements,

1 19419U          26156.37857086 +.00000000 +00000-0 +13029-3 0 00009
2 19419  90.0415  20.9169 0097956 107.6372  64.5772 13.42656693    00
Epoch (UTC): 05 June 2026 09:05:08
Eccentricity: 0.0097956
inclination: 90.0415°
perigee height: 1026 km
apogee height: 1173 km
right ascension of ascending node: 20.9169°
argument of perigee: 107.6372°
revolutions per day: 13.42656693
mean anomaly at epoch: 64.5772°

The dashed part of the orbit path shows where the satellite is in the earth's shadow,  

DLR